Overview Statistics Trail Chart Weather Telemetry Raw packets
 

This is the latest recevied weather packets stored in our database for station/object R2AJV-13. If no packets are shown the sender has not sent any weather packets the latest 10 day(s).

<< 6 7 8 9 10 11 12 >>
Time Temp. Humidity Pressure Rain* Wind** Luminosity Snow
1788438618 19.44° C 75% 998.3 hPa 0.51 mm - - -
1788437768 20° C 79% 998.5 hPa 0.51 mm - - -
1788436857 17.78° C 91% 998.5 hPa 0.51 mm - - -
1788435947 18.89° C 77% 998.4 hPa 0 mm - - -
1788435042 21.11° C 71% 998.2 hPa 0 mm - - -
1788434132 21.11° C 71% 998.3 hPa 0 mm - - -
1788432370 20.56° C 73% 998.4 hPa 0 mm - - -
1788431465 18.89° C 78% 998.6 hPa 0 mm - - -
1788336935 18.89° C 83% 995.8 hPa 0 mm - - -
1788336024 18.33° C 86% 995.9 hPa 0 mm - - -
1788335120 17.78° C 88% 995.9 hPa 0 mm - - -
1788334268 17.78° C 87% 995.9 hPa 0 mm - - -
1788333357 17.78° C 88% 995.8 hPa 0 mm - - -
1788332446 18.33° C 86% 995.6 hPa 0 mm - - -
1788331535 17.78° C 90% 995.6 hPa 0 mm - - -
1788330631 17.22° C 92% 995.5 hPa 0 mm - - -
1788329721 17.22° C 90% 995.5 hPa 0 mm - - -
1788328870 17.78° C 90% 995.3 hPa 0 mm - - -
1788327960 17.22° C 93% 995.3 hPa 0 mm - - -
1788327054 17.78° C 93% 995.4 hPa 0 mm - - -
1788326143 17.22° C 94% 995.3 hPa 0 mm - - -
1788325261 16.67° C 97% 995.4 hPa 0 mm - - -
1788324356 16.11° C 98% 995.4 hPa 0 mm - - -
1788323445 16.11° C 99% 995.5 hPa 0 mm - - -
1788322534 16.11° C 99% 995.5 hPa 0 mm - - -

* Rain latest hour (hover to see other rain measurements)
** Current wind speed in m/s (hover to see current wind gust speed)